+ View the NASA Portal
+ Center for Near-Earth Object Studies
IMPORTANT:
The SSD Announcement email list is now available. Major changes are coming in the near future, including possible hostname and/or URL changes. To be notified of such changes, subscribe to this email list.
Please visit
this page
for more details.
Don't show this message again
JPL Small-Body Database Browser
Search:
[
help
]
212832 (2007 UX66)
Classification:
Main-belt Asteroid
SPK-ID:
2212832
[
Ephemeris
|
Orbit Diagram
|
Orbital Elements
|
Mission Design
|
Physical Parameters
|
Discovery Circumstances
|
Close-Approach Data
]
[ show orbit diagram ]
Orbital Elements at Epoch 2458600.5 (2019-Apr-27.0) TDB
Reference:
JPL 9
(heliocentric ecliptic J2000)
Element
Value
Uncertainty (1-sigma)
Units
e
.1791956914565521
1.3274e-07
a
2.560471175898227
2.3056e-08
au
q
2.101645773078574
3.5079e-07
au
i
4.031473799053675
1.3013e-05
deg
node
9.765035723525305
7.7472e-05
deg
peri
121.9259609977514
8.8521e-05
deg
M
205.5093943573312
3.4819e-05
deg
t
p
2459242.711145788469
(2021-Jan-28.21114579)
0.0001417
TDB
period
1496.505315142572
4.10
2.0214e-05
5.534e-08
d
yr
n
.2405604553203359
3.2493e-09
deg/d
Q
3.019296578717881
2.7188e-08
au
Orbit Determination Parameters
# obs. used (total)
269
data-arc span
5790 days (15.85 yr)
first obs. used
2003-11-28
last obs. used
2019-10-05
planetary ephem.
DE431
SB-pert. ephem.
SB431-N16
condition code
0
norm. resid. RMS
.54857
source
ORB
producer
Otto Matic
solution date
2019-Nov-07 23:47:06
Additional Information
Earth MOID
= 1.11977 au
Jupiter MOID
= 2.03228 au
T_jup
= 3.409
[ show covariance matrix ]
[
Ephemeris
|
Orbit Diagram
|
Orbital Elements
|
Mission Design
|
Physical Parameters
|
Discovery Circumstances
|
Close-Approach Data
]
Physical Parameter Table
Parameter
Symbol
Value
Units
Sigma
Reference
Notes
absolute magnitude
H
16.9
n/a
MPO418139
212832 (2007 UX66)
Discovered 2007-Oct-30 by Spacewatch at Kitt Peak
Reference:
20090409/Numbers.arc
Last Updated:
2009-04-10
[ hide close-approach data ]
Close-Approach Data
...sorted by
Date/Time (TDB)
Date/Time (TDB)
Time Uncertainty
(days_HH:MM)
Body
Nominal Distance (au)
Minimum Distance (au)
Maximum Distance (au)
V-relative (km/s)
V-infinity (km/s)
JD (TDB)
Time Uncertainty (minutes)
Semi-major axis (km)
Semi-minor axis (km)
range-LOV angle (deg)
N-sigma
BP
Orbit Ref.
Reference
Modified
1907-May-10 01:49
00:02
Thisb
0.0469816030172341
0.0469551247384817
0.0470081239523446
6.40102034687809
6.40102032420568
2417705.575771019
2.09733524308619
2607.05796573768
156.023374788657
59.7288404541058
38919.242293213
T
9
CATAB v2.0f-lin.ifort 2019-Nov-07 23:47:09
2019-Nov-07 23:47
1981-Feb-01 10:02
00:02
Thisb
0.0423706360198451
0.0423597235548819
0.0423815488846136
6.41466848100206
6.41466845591582
2444636.918320581
1.86243210580724
585.207167652253
167.274589026802
22.6105581658166
17665.3934928094
T
9
CATAB v2.0f-lin.ifort 2019-Nov-07 23:47:09
2019-Nov-07 23:47
2017-Dec-09 17:41
00:02
Thisb
0.0260387817270472
0.0260297017707414
0.0260478630683876
6.66128971748615
6.66128967817681
2458097.237098060
1.57036430328229
553.328798440385
153.013395006214
-36.7463291129924
16237.7074126809
T
9
CATAB v2.0f-lin.ifort 2019-Nov-07 23:47:09
2019-Nov-07 23:47
2091-Sep-01 02:25
00:01
Thisb
0.00544338437576122
0.00543913426538003
0.00544779707256413
6.74800108766406
6.74800090204156
2485025.601018105
1.10818227253733
2290.56211137016
163.911636349824
86.4800215350642
4957.04556157115
T
9
CATAB v2.0f-lin.ifort 2019-Nov-07 23:47:09
2019-Nov-07 23:47
2092-Jan-30 15:33
00:01
Eunom
0.0350109343566214
0.0350046523689093
0.0350172506754302
6.31591779513659
6.31591773165414
2485177.147677320
1.4430831307822
2228.46687974127
195.186920016095
-83.6379131448754
26657.9412429265
T
9
CATAB v2.0f-lin.ifort 2019-Nov-07 23:47:09
2019-Nov-07 23:47
2128-Jul-12 03:12
00:01
Thisb
0.0267427952784766
0.026671386226378
0.0268142062050823
6.76894919807872
6.76894916041296
2498488.633574898
1.39077760121141
3577.80793837225
165.239936712409
5.67983069859662
2640.77809180077
T
9
CATAB v2.0f-lin.ifort 2019-Nov-07 23:47:09
2019-Nov-07 23:47
[
Ephemeris
|
Orbit Diagram
|
Orbital Elements
|
Mission Design
|
Physical Parameters
|
Discovery Circumstances
|
Close-Approach Data
]
2019-Dec-14 09:06 UT
(server date/time)
Site Manager:
Ryan S. Park
Webmaster
:
Alan B. Chamberlin